Temperature
19 19 19 19 18 18 18 18 18 18 17 17 17 17 17 17 17 17 17 17 17 17 16 16 16 16 16 16 16 16 16 16 16 16 16 16 16 16 16 16 16 16 16
19 19 19 19 18 18 18 18 18 17 17 17 17 17 17 17 17 17 17 17 17 17 16 16 16 16 16 16 16 16 16 16 16 16 16 16 16 16 16 16 16 16 16
19 19 19 18 18 18 18 18 18 18 17 17 17 17 17 17 17 17 17 17 17 17 16 16 16 16 16 16 16 16 16 16 16 16 16 16 16 16 16 16 16 16 16
19 19 19 19 18 18 18 18 18 18 17 17 17 17 17 17 17 17 17 17 17 16 16 16 16 16 16 16 16 16 16 16 16 16 16 16 16 16 16 17 17 17 17
19 19 19 19 19 18 18 18 18 18 17 17 17 17 17 17 17 17 17 17 17 17 16 16 16 16 16 16 16 16 16 16 16 16 16 16 16 16 16 17 17 17 17
19 19 19 19 18 18 18 18 18 18 17 17 17 17 17 17 17 17 17 17 17 17 16 16 16 16 16 16 16 16 16 16 16 16 16 16 16 16 17 17 17 17 17
19 19 19 18 18 18 18 18 18 18 17 17 17 17 17 17 17 17 17 17 17 17 17 16 16 16 16 16 16 16 16 16 16 16 16 16 16 16 16 16 17 17 17
19 19 19 19 19 18 18 18 18 18 17 17 17 17 17 17 17 17 17 17 17 17 17 16 16 16 16 16 16 16 16 16 16 16 16 16 16 16 16 16 16 16 16
19 20 19 19 19 19 18 18 18 18 17 17 17 17 17 17 17 17 17 17 17 17 16 16 16 16 16 16 16 16 15 15 15 15 16 16 16 16 16 16 16 16 16
20 20 20 19 19 19 18 18 18 18 18 17 17 17 17 17 17 17 17 17 17 17 17 16 16 16 16 16 15 15 15 15 15 15 15 15 15 15 16 16 16 16 16
20 20 20 19 19 18 18 18 18 17 17 17 17 17 17 17 17 17 17 17 17 17 16 16 16 16 16 15 15 15 15 15 15 15 15 15 15 15 15 15 15 15 15
20 20 20 19 19 18 18 18 18 18 17 17 17 17 17 17 17 17 17 17 16 16 16 16 16 16 16 15 15 15 15 15 15 15 15 15 15 15 15 15 15 15 15
19 19 19 19 19 19 18 18 18 18 17 17 17 17 17 17 17 17 17 16 16 16 16 16 16 16 16 15 15 15 15 15 15 15 15 15 15 15 15 15 15 15 14
19 19 19 19 19 19 18 18 18 17 17 17 17 17 17 17 17 17 16 16 16 16 16 16 15 15 15 15 15 15 15 15 15 15 15 15 14 14 14 14 14 14 14
19 19 19 19 19 18 18 18 18 17 17 17 17 17 17 17 16 16 16 16 16 16 15 15 15 15 15 15 15 15 15 14 14 14 14 14 14 14 14 14 14 14 14
18 18 19 19 19 18 18 18 18 17 17 17 17 17 16 16 16 16 16 16 15 15 15 15 15 14 14 14 14 14 14 14 14 14 14 14 14 14 13 13 13 13 13
18 18 18 18 18 18 18 18 18 17 17 17 16 16 16 16 16 16 15 15 15 15 15 14 14 14 14 14 14 14 14 14 13 13 13 13 13 13 13 12 12 12 12
18 18 18 18 18 18 18 17 17 17 17 16 16 16 16 16 15 15 15 15 14 14 14 14 14 14 13 13 13 13 13 13 13 12 12 12 12 12 12 11 11 11 11
18 18 18 18 18 18 17 17 17 17 16 16 16 15 15 15 15 14 14 14 14 13 13 13 13 13 12 12 12 12 12 12 12 11 11 11 11 11 11 11 10 10 10
17 17 17 17 17 17 17 17 16 16 16 15 15 15 15 15 14 14 14 13 13 13 12 12 12 12 12 11 11 11 11 11 11 11 10 10 10 10 9 9 9 9 8
17 17 17 17 17 16 16 16 16 16 15 15 15 14 14 14 14 13 13 13 12 12 12 11 11 11 11 11 11 11 11 10 10 10 9 9 8 8 8 8 8 7 7
16 16 16 16 16 16 16 16 15 15 14 14 14 13 13 13 13 13 12 12 12 11 11 11 11 10 10 10 10 9 9 9 9 9 8 8 7 7 7 7 7 6 6
15 15 15 15 15 15 15 15 14 14 14 13 13 13 13 12 12 12 11 11 11 11 10 10 10 9 9 9 8 8 8 8 8 7 7 7 7 6 6 6 6 6 5
14 14 14 14 14 14 14 14 13 13 13 13 12 12 12 11 11 11 11 10 10 10 10 9 9 8 8 8 8 7 7 7 7 7 6 6 6 6 5 5 5 5 4
13 13 13 13 13 13 13 13 13 13 12 12 11 11 11 11 10 10 10 9 9 9 9 9 8 8 8 7 7 7 6 6 6 6 6 5 5 5 4 4 4 4 3
13 13 13 12 12 12 12 12 12 12 12 11 11 11 10 10 10 9 9 8 8 8 8 8 8 7 7 6 6 6 6 5 5 5 5 5 4 4 3 3 3 3 2
Wind_Speed
5 7 7 9 10 10 11 11 11 9 8 6 5 5 4 4 4 4 7 9 9 10 8 5 5 5 4 4 4 3 3 2 2 3 2 2 2 0 1 2 2 4 6
6 7 8 9 11 12 12 11 11 10 9 7 5 4 4 3 3 3 5 7 9 9 8 6 5 5 4 4 4 3 3 2 1 3 2 2 3 2 1 1 2 4 4
9 9 10 10 11 12 13 12 10 9 9 8 6 5 4 3 2 3 3 5 8 9 8 8 6 5 5 5 4 4 5 3 1 1 3 3 3 2 2 2 2 2 3
7 9 10 11 11 11 10 10 10 10 10 9 9 9 6 5 5 5 4 5 7 8 9 8 7 6 5 5 5 4 3 4 3 1 1 1 3 2 1 2 2 2 3
8 9 9 10 10 10 9 9 9 9 9 9 9 8 6 4 4 4 5 5 4 6 8 8 7 6 5 5 5 4 4 3 4 3 2 2 1 1 2 1 2 2 2
6 7 6 7 8 8 9 9 10 9 9 10 9 9 9 7 7 6 6 5 3 3 5 7 6 6 5 5 5 5 5 3 3 3 3 3 2 2 2 2 2 2 2
6 8 8 8 8 9 9 9 10 9 9 10 9 9 9 9 9 8 7 6 4 4 6 6 5 5 5 6 5 5 4 4 4 4 3 2 2 2 3 2 1 1 2
8 9 9 9 9 9 9 9 10 9 9 9 9 8 8 7 6 7 7 7 6 6 6 7 6 6 7 6 6 4 4 4 4 4 3 2 2 3 3 3 3 1 1
8 9 9 8 8 8 8 9 9 8 9 9 8 8 8 7 7 7 6 6 5 6 7 7 7 6 7 7 6 4 4 4 3 3 3 2 2 2 2 2 3 3 2
7 7 7 7 6 6 7 7 8 8 8 9 9 8 8 8 7 7 7 7 6 6 7 8 7 7 6 6 6 4 4 5 4 3 3 2 2 1 2 2 2 3 3
8 7 6 6 6 6 6 7 7 7 8 8 8 7 7 7 6 6 7 6 6 6 7 7 7 7 7 6 6 5 5 5 3 3 3 3 2 2 2 2 2 2 3
6 7 7 7 7 6 6 6 6 7 7 7 7 7 6 6 6 6 6 6 6 6 7 7 6 6 6 6 6 5 5 5 4 3 3 3 2 2 2 2 2 2 3
6 6 6 6 7 6 5 5 5 6 6 6 7 6 6 6 6 6 5 6 6 6 6 6 6 5 5 5 5 5 5 4 3 3 3 2 2 2 1 1 1 1 2
5 6 6 6 5 5 5 5 4 5 6 6 6 6 6 6 6 5 5 6 6 7 6 6 6 5 4 4 4 5 4 4 3 3 2 2 2 1 1 1 1 1 1
5 6 6 5 5 5 5 4 4 4 5 6 6 6 5 6 6 6 6 6 6 7 7 7 6 5 4 3 5 5 5 5 4 4 4 4 5 4 2 1 1 1 1
5 6 6 6 5 5 5 5 4 4 5 6 5 5 6 6 6 6 7 7 7 7 7 7 7 6 4 5 6 7 6 5 5 5 5 6 8 9 10 10 9 7 3
5 5 5 5 5 5 5 6 5 5 6 5 5 5 6 7 7 7 7 7 7 7 8 7 8 7 7 8 9 9 8 7 7 6 6 6 6 7 7 11 14 14 15
4 4 4 4 4 4 5 5 6 6 7 6 6 6 7 8 8 8 8 8 7 8 7 7 8 8 8 10 12 13 10 9 8 7 7 7 6 7 7 9 11 11 11
4 4 4 5 5 6 6 7 7 7 7 7 7 7 8 8 9 9 9 9 9 9 9 8 9 9 9 10 11 10 9 9 10 9 9 8 8 9 10 10 10 10 9
4 4 5 6 6 6 8 9 8 8 7 7 8 8 8 9 10 10 10 10 10 10 10 11 10 10 9 11 12 11 8 9 9 9 10 13 12 12 12 10 9 9 7
4 5 6 6 5 6 8 9 9 8 8 9 10 10 10 10 11 11 10 11 11 11 11 11 10 10 10 11 13 11 8 9 9 8 8 9 14 15 14 12 10 9 7
5 6 7 7 6 6 9 10 9 9 10 11 12 11 11 11 11 12 11 11 11 12 11 11 10 9 9 11 12 14 12 11 11 9 8 9 14 15 14 12 12 12 9
5 5 7 8 7 7 8 11 8 10 12 13 13 12 12 11 10 11 11 10 9 9 9 9 9 8 7 9 14 14 15 14 10 10 13 13 14 13 12 15 14 10 8
6 6 8 9 8 8 9 10 10 11 13 14 13 12 13 12 11 9 9 9 8 9 9 9 8 8 7 7 7 7 9 12 11 10 12 14 15 12 11 10 9 8 7
6 7 8 10 10 10 10 10 10 13 14 14 13 12 12 13 12 11 9 9 7 7 9 8 7 8 7 5 8 8 7 7 8 8 8 8 7 8 8 7 7 7 7
8 9 10 11 10 11 11 10 9 12 14 13 12 10 11 11 11 12 13 17 14 16 14 11 10 8 10 12 14 15 14 13 11 9 7 7 7 6 6 6 5 5 6
Wind_Direction
166 153 159 166 163 168 170 175 172 169 160 158 160 161 170 165 162 165 171 173 169 167 160 157 153 152 153 156 147 123 112 98 111 96 54 16 15 312 252 244 233 231 229
163 166 167 172 175 177 178 179 176 168 167 168 159 154 149 151 152 152 161 168 165 164 166 159 159 155 140 136 145 138 128 108 115 126 105 30 348 340 332 265 240 241 232
177 176 177 178 178 181 181 181 177 169 167 158 141 131 113 100 128 157 167 169 169 168 164 162 153 153 154 162 166 158 148 144 118 128 141 149 215 288 321 305 272 257 234
176 180 180 182 183 183 177 172 171 169 164 160 166 166 169 174 186 177 174 164 167 167 167 162 157 160 160 163 172 162 154 144 150 128 91 137 153 154 293 319 304 281 247
178 180 176 176 174 175 172 169 166 169 164 170 175 172 174 174 159 153 160 164 164 167 167 162 160 163 162 165 164 156 156 153 156 159 147 120 90 111 148 258 308 312 276
171 164 158 156 159 162 165 166 169 170 167 173 177 177 176 167 161 169 172 170 164 166 169 164 163 165 163 165 166 163 161 161 151 152 154 156 158 172 164 192 247 276 288
164 157 157 162 166 168 170 171 173 175 172 176 181 182 181 177 181 181 182 175 174 180 184 174 168 170 170 164 157 157 163 166 162 165 169 172 174 158 156 161 191 254 291
172 171 173 172 173 173 172 173 178 180 176 177 181 182 180 180 187 185 182 184 187 186 179 176 176 174 169 164 158 157 167 166 170 172 164 167 182 174 173 168 159 179 298
177 175 170 169 171 173 174 175 178 178 180 180 177 179 180 181 187 185 184 188 187 183 177 178 176 174 171 166 160 163 167 164 175 176 174 175 191 188 192 182 173 167 207
171 166 165 164 168 170 168 167 175 183 184 183 184 186 184 185 185 180 185 189 188 181 173 178 177 174 173 170 164 164 167 167 176 178 171 180 196 186 184 187 189 185 187
174 165 160 159 160 159 163 170 176 177 181 184 184 181 183 182 177 182 188 185 181 176 177 178 175 174 173 171 169 172 171 175 180 179 178 194 184 184 188 180 182 190 187
163 156 152 154 157 163 166 172 178 182 183 178 175 177 174 172 177 188 186 178 176 174 173 169 169 174 171 169 172 176 174 175 182 184 179 199 188 187 187 184 195 202 203
146 146 147 152 157 163 167 170 175 180 172 166 168 171 174 176 181 184 176 168 166 160 155 153 156 160 159 160 167 166 164 166 170 166 171 185 163 180 175 182 198 214 208
151 152 151 153 155 159 158 161 171 172 166 162 164 174 184 181 175 164 155 154 151 147 144 141 141 140 140 148 151 151 150 146 139 133 131 125 141 176 173 173 200 180 166
151 157 154 151 151 154 153 157 162 158 157 156 164 177 174 164 152 145 140 135 137 140 134 125 117 112 115 127 137 138 135 128 115 96 87 76 76 74 85 90 86 119 124
156 157 155 152 153 156 156 158 157 151 143 151 164 159 150 144 139 137 133 129 126 124 119 117 112 101 97 98 114 121 116 111 105 95 82 72 63 66 68 69 65 62 62
156 157 158 153 153 155 158 160 154 139 137 141 139 131 131 131 130 128 123 121 116 108 103 104 103 96 87 94 102 107 103 93 87 85 81 75 64 65 76 73 68 59 54
146 145 149 148 142 136 140 138 133 133 134 131 123 118 121 120 117 115 112 105 100 99 96 96 98 94 83 89 96 97 92 85 76 73 75 79 68 68 84 84 74 65 54
137 134 141 143 139 137 138 130 126 127 128 127 122 122 120 119 116 113 108 104 100 94 88 85 86 87 77 79 91 98 94 87 74 66 64 72 73 68 81 86 82 71 58
117 124 123 119 125 130 130 125 124 123 124 123 120 117 116 115 112 110 106 100 97 94 88 80 73 77 76 73 82 92 98 92 85 73 64 63 71 67 71 80 81 75 58
103 114 115 113 115 118 118 117 116 116 114 110 105 102 102 106 108 106 103 103 100 95 90 83 70 64 64 66 72 83 96 102 94 83 72 66 70 70 69 72 74 76 73
93 102 104 97 93 106 112 109 109 110 108 106 103 101 101 104 107 105 101 100 103 99 93 86 74 60 55 60 69 74 83 95 96 90 84 78 75 73 69 70 67 64 63
92 96 100 93 81 83 104 109 107 109 109 106 104 102 99 99 102 106 106 101 97 98 95 92 86 73 63 61 66 75 81 85 89 91 91 83 76 72 68 64 61 57 57
102 103 106 102 92 86 92 103 107 106 106 106 104 102 100 95 89 89 94 101 103 105 103 100 97 89 77 72 74 79 84 84 88 89 81 74 68 67 63 57 53 52 52
102 105 107 105 100 96 94 96 103 108 107 106 105 103 100 101 91 80 70 80 71 104 114 110 108 105 94 77 91 100 95 97 102 96 80 72 67 63 58 54 49 45 42
106 105 104 103 100 98 94 92 99 109 112 110 106 106 106 103 101 98 83 63 74 78 83 95 102 90 100 101 92 89 91 92 95 87 81 75 71 66 59 53 45 37 30
Height
1480 1482 1485 1488 1491 1494 1498 1502 1506 1510 1515 1519 1523 1527 1530 1533 1537 1539 1542 1545 1547 1550 1552 1554 1556 1557 1559 1560 1562 1563 1565 1566 1567 1569 1570 1570 1571 1572 1573 1573 1574 1575 1576
1479 1481 1483 1486 1489 1492 1495 1499 1504 1509 1513 1517 1521 1525 1529 1532 1535 1538 1541 1544 1546 1549 1551 1553 1555 1556 1558 1559 1561 1563 1564 1565 1567 1568 1569 1570 1572 1571 1572 1572 1573 1574 1575
1477 1479 1481 1482 1486 1490 1493 1497 1502 1507 1511 1516 1520 1524 1527 1531 1534 1536 1539 1542 1545 1547 1550 1552 1553 1555 1557 1558 1560 1562 1563 1564 1566 1567 1569 1569 1569 1570 1571 1571 1572 1573 1574
1476 1477 1478 1480 1484 1488 1493 1496 1501 1506 1510 1514 1518 1521 1524 1528 1531 1534 1537 1540 1543 1545 1548 1550 1552 1554 1556 1557 1559 1561 1562 1564 1565 1566 1567 1568 1569 1569 1570 1571 1571 1572 1572
1474 1475 1477 1480 1484 1488 1492 1496 1500 1504 1508 1512 1516 1520 1523 1527 1530 1533 1536 1538 1541 1543 1546 1548 1550 1552 1554 1556 1558 1559 1561 1562 1564 1565 1566 1567 1568 1568 1569 1569 1570 1571 1571
1472 1474 1477 1481 1484 1487 1491 1495 1499 1503 1507 1511 1515 1518 1521 1525 1528 1530 1533 1536 1539 1541 1543 1546 1548 1550 1552 1554 1556 1558 1559 1561 1562 1564 1565 1566 1567 1567 1568 1568 1569 1569 1570
1472 1474 1477 1480 1484 1487 1490 1494 1498 1502 1505 1509 1513 1516 1519 1523 1526 1529 1531 1534 1536 1539 1541 1544 1546 1548 1550 1552 1554 1556 1557 1559 1561 1562 1563 1564 1565 1566 1567 1568 1568 1568 1568
1471 1474 1476 1479 1483 1486 1490 1493 1497 1500 1504 1507 1511 1514 1517 1521 1524 1527 1530 1532 1534 1537 1539 1542 1544 1546 1549 1550 1552 1554 1556 1557 1559 1560 1561 1563 1564 1564 1565 1566 1566 1566 1567
1470 1473 1475 1478 1482 1485 1488 1492 1495 1498 1502 1505 1509 1512 1516 1519 1522 1525 1528 1530 1532 1535 1537 1539 1542 1544 1546 1548 1550 1552 1554 1556 1557 1558 1560 1561 1562 1562 1563 1564 1564 1565 1564
1469 1472 1475 1478 1481 1485 1488 1491 1494 1497 1500 1503 1506 1510 1513 1516 1519 1522 1525 1527 1530 1532 1535 1537 1540 1542 1544 1546 1548 1550 1552 1553 1555 1556 1558 1559 1559 1560 1561 1561 1562 1562 1562
1468 1471 1474 1478 1481 1484 1487 1489 1492 1495 1498 1501 1504 1507 1510 1513 1516 1519 1522 1524 1527 1530 1532 1535 1537 1539 1542 1544 1546 1548 1550 1551 1553 1554 1555 1556 1557 1557 1558 1558 1559 1559 1559
1467 1470 1473 1476 1480 1482 1485 1488 1491 1493 1496 1499 1502 1505 1508 1510 1513 1516 1519 1522 1524 1527 1530 1532 1534 1537 1539 1542 1544 1546 1548 1549 1551 1552 1552 1553 1554 1554 1555 1555 1556 1556 1556
1467 1470 1472 1475 1478 1480 1483 1486 1489 1491 1494 1497 1500 1502 1505 1507 1510 1513 1516 1519 1521 1524 1527 1529 1532 1534 1537 1539 1541 1543 1545 1547 1548 1549 1550 1550 1551 1551 1552 1552 1552 1552 1552
1466 1469 1471 1474 1477 1479 1482 1485 1487 1490 1492 1495 1498 1500 1503 1505 1508 1510 1513 1516 1519 1521 1524 1527 1529 1532 1534 1537 1539 1541 1542 1544 1545 1546 1547 1547 1548 1548 1549 1549 1549 1549 1549
1467 1469 1471 1474 1476 1479 1481 1484 1486 1488 1490 1493 1496 1499 1501 1504 1506 1508 1511 1514 1516 1519 1522 1524 1527 1529 1531 1534 1536 1538 1539 1541 1542 1543 1544 1544 1545 1545 1545 1545 1545 1545 1545
1466 1469 1471 1473 1476 1478 1480 1483 1485 1487 1489 1492 1494 1497 1500 1502 1504 1507 1509 1511 1514 1517 1519 1522 1524 1527 1529 1531 1534 1535 1536 1538 1539 1540 1541 1541 1542 1542 1542 1542 1542 1542 1542
1465 1468 1470 1472 1474 1477 1479 1482 1484 1486 1489 1491 1494 1496 1498 1501 1503 1506 1508 1510 1512 1515 1517 1519 1522 1525 1527 1529 1531 1533 1534 1535 1536 1537 1538 1539 1539 1540 1540 1540 1539 1539 1539
1464 1466 1469 1471 1474 1476 1478 1481 1483 1485 1488 1490 1493 1495 1497 1500 1502 1504 1507 1509 1511 1514 1516 1518 1521 1523 1525 1527 1529 1531 1532 1533 1534 1535 1536 1537 1538 1538 1538 1538 1537 1537 1537
1464 1466 1468 1470 1473 1475 1477 1479 1482 1484 1487 1489 1491 1494 1497 1499 1502 1504 1506 1509 1511 1513 1515 1518 1519 1521 1523 1525 1528 1530 1531 1532 1533 1534 1535 1536 1536 1536 1536 1536 1536 1535 1535
1464 1465 1467 1469 1471 1473 1475 1477 1480 1483 1486 1488 1491 1494 1497 1499 1501 1504 1506 1509 1511 1514 1516 1518 1520 1522 1524 1526 1527 1529 1530 1531 1532 1533 1534 1535 1535 1535 1535 1535 1535 1535 1535
1464 1465 1466 1468 1470 1473 1475 1477 1479 1482 1485 1488 1491 1494 1497 1500 1502 1505 1507 1510 1512 1515 1517 1519 1521 1523 1525 1527 1528 1529 1530 1531 1532 1533 1534 1535 1536 1535 1535 1535 1535 1535 1535
1464 1465 1466 1468 1470 1473 1475 1477 1480 1483 1486 1488 1491 1494 1497 1500 1503 1506 1509 1511 1514 1516 1519 1521 1523 1525 1526 1528 1529 1530 1531 1533 1533 1534 1536 1536 1537 1537 1536 1536 1535 1535 1535
1464 1466 1467 1469 1472 1474 1476 1478 1481 1484 1486 1489 1492 1496 1499 1501 1505 1507 1510 1513 1516 1518 1520 1522 1524 1526 1528 1530 1531 1532 1533 1535 1535 1536 1537 1538 1538 1538 1537 1537 1536 1535 1534
1465 1467 1469 1470 1473 1476 1478 1480 1483 1485 1488 1491 1494 1497 1500 1503 1507 1510 1513 1516 1518 1520 1522 1524 1526 1528 1530 1532 1534 1535 1536 1537 1538 1538 1539 1540 1540 1539 1538 1537 1536 1535 1534
1467 1469 1471 1472 1475 1478 1480 1483 1485 1488 1490 1493 1496 1499 1502 1505 1509 1512 1516 1519 1522 1524 1526 1528 1530 1531 1533 1535 1537 1538 1539 1540 1540 1541 1541 1541 1541 1540 1539 1538 1536 1535 1534
1468 1470 1472 1475 1478 1481 1483 1485 1488 1491 1493 1496 1499 1503 1506 1509 1512 1515 1518 1523 1525 1528 1530 1532 1533 1535 1536 1538 1539 1540 1541 1542 1542 1542 1542 1541 1541 1540 1539 1538 1537 1535 1533